[[{"header":{"parameterUnit":"m.s-1","parameterCategory":1,"la1":30.2991,"la2":30.254,"lo1":-89.0895,"lo2":-89.0444,"dy":0.0017,"dx":0.0017,"nx":28,"ny":28,"refTime":"2024-08-25T09:00:00:Z","depth":0,"parameterNumber":2,"parameterNumberName":"U-component_of_WINDS"},"data":[0,0,0,0,0,0,0,0,0,0,0,0,0,0,0,0,0,0,0,0,0,0,0,0,0,0,0,0,0,0,0,0,0,0,0,0,0,0,0,0,0,0,0,0,0,0,0,0,0,0,0,0,0,0,0,0,0,0,-1.7562,-1.7563,0,-1.7675,-1.7677,-1.7678,-1.7662,-1.766,-1.7658,-1.7657,-1.7775,-1.7779,-1.7784,0,0,0,0,0,0,0,0,0,0,0,0,0,-1.7332,-1.7336,-1.7561,-1.7563,-1.7564,-1.7675,-1.7677,-1.7678,-1.7663,-1.766,-1.7658,-1.7656,-1.7773,-1.7779,-1.7785,0,0,0,0,0,0,0,0,0,0,0,0,0,-1.7437,-1.7338,-1.7561,-1.757,-1.7572,-1.7675,-1.7677,-1.7679,-1.7663,-1.766,-1.7657,-1.7655,-1.7771,-1.7778,-1.7785,-1.7888,0,0,-1.7808,-1.7811,0,0,0,0,0,0,0,0,-1.7431,-1.7446,-1.7567,-1.7569,-1.7572,-1.7652,-1.7639,-1.7749,-1.7664,-1.7628,-1.7657,-1.7653,-1.7736,-1.7746,-1.7774,-1.7893,-1.7898,-1.7809,-1.7813,-1.7816,-1.7818,0,0,0,0,0,0,0,-1.7424,-1.7441,-1.7607,-1.7569,-1.7572,-1.7568,-1.758,-1.766,-1.7697,-1.7631,-1.763,-1.7644,-1.7737,-1.7767,-1.7776,-1.79,-1.7808,-1.7815,-1.782,-1.7822,-1.811,-1.8113,0,0,0,0,0,0,-1.7414,-1.7435,-1.7603,-1.761,-1.7493,-1.7575,-1.7588,-1.7629,-1.7696,-1.7703,-1.7646,-1.7643,-1.7756,-1.7768,-1.7781,-1.7905,-1.7816,-1.7823,-1.7827,-1.8107,-1.8111,-1.8114,0,0,0,0,0,0,-1.741,-1.743,-1.7598,-1.7522,-1.7543,-1.7582,-1.7628,-1.7633,-1.7662,-1.7707,-1.7714,-1.767,-1.7754,-1.777,-1.7861,-1.7909,-1.7826,-1.7833,-1.8103,-1.8108,-1.8112,-1.8156,0,0,0,0,0,0,-1.7403,-1.7428,-1.7467,-1.7523,-1.7548,-1.7677,-1.7631,-1.7637,-1.7675,-1.7672,-1.7731,-1.7738,-1.7753,-1.785,-1.7869,-1.7918,-1.7839,-1.8099,-1.8105,-1.8111,-1.815,-1.8161,-1.8171,0,0,0,0,0,-1.7395,-1.7475,-1.7469,-1.7489,-1.7597,-1.768,-1.7694,-1.7708,-1.7679,-1.7719,-1.7747,-1.7737,-1.7901,-1.786,-1.788,-1.7932,-1.8096,-1.8103,-1.811,-1.8145,-1.8159,-1.8171,0,0,0,0,0,0,-1.7423,-1.7482,-1.7476,-1.7577,-1.7623,-1.7677,-1.7727,-1.7722,-1.7778,-1.7773,-1.7789,-1.7803,-1.7895,-1.7923,-1.7876,-1.8035,-1.7994,-1.8006,-1.8014,-1.8027,-1.8038,-1.803,-1.7845,0,0,0,0,0,-1.7441,-1.7503,-1.7551,-1.7635,-1.7658,-1.7689,-1.7726,-1.7733,-1.7782,-1.7802,-1.7837,-1.7886,-1.7948,-1.7989,-1.8049,-1.8154,-1.8167,-1.82,-1.821,-1.8218,-1.8229,-1.8287,-1.8302,-1.8138,-1.8138,-1.8138,0,0,-1.7479,-1.7519,-1.7557,-1.7642,-1.7679,-1.7743,-1.7706,-1.7775,-1.7823,-1.7812,-1.7901,-1.7928,-1.7984,-1.8082,-1.8127,-1.8108,-1.8277,-1.8228,-1.8234,-1.824,-1.8296,-1.8311,-1.8325,-1.8143,-1.8142,-1.8141,0,0,-1.7581,-1.7616,-1.7691,-1.7728,-1.7785,-1.7804,-1.7822,-1.7877,-1.7895,-1.7983,-1.7977,-1.8034,-1.8141,-1.8181,-1.8216,-1.8332,-1.8325,-1.8351,-1.8406,-1.8463,-1.8476,-1.8487,-1.853,-1.8545,-1.8361,-1.8361,-1.8361,0,-1.7621,-1.7717,-1.773,-1.78,-1.7838,-1.783,-1.7906,-1.7942,-1.8015,-1.8042,-1.8019,-1.8154,-1.819,-1.8298,-1.8327,-1.8355,-1.8376,-1.8345,-1.8473,-1.8485,-1.8496,-1.8537,-1.8553,-1.8364,-1.8364,-1.8364,-1.8363,0,-1.7764,-1.7831,-1.7884,-1.7954,-1.7998,-1.8071,-1.8095,-1.8138,-1.8141,-1.8163,-1.8254,-1.8298,-1.8367,-1.8393,-1.8396,-1.8502,-1.8488,-1.8469,-1.8428,-1.8514,-1.8553,-1.8569,-1.8369,-1.8367,-1.8367,-1.8366,0,0,-1.7888,-1.7964,-1.7984,-1.8016,-1.8077,-1.8129,-1.8202,-1.8269,-1.8306,-1.8356,-1.8418,-1.8509,-1.8491,-1.853,-1.8539,-1.8588,-1.8679,-1.8563,-1.8565,-1.8584,-1.8799,-1.8814,-1.8832,-1.8674,-1.8677,-1.8679,-1.8795,0,-1.7996,-1.8124,-1.8138,-1.8252,-1.8314,-1.8308,-1.8371,-1.8416,-1.8439,-1.8495,-1.852,-1.8585,-1.8557,-1.858,-1.8629,-1.8658,-1.8723,-1.865,-1.8733,-1.8736,-1.872,-1.8852,-1.8868,-1.8975,-1.881,-1.8813,-1.8814,0,-1.8141,-1.8195,-1.8316,-1.8368,-1.8395,-1.8452,-1.8515,-1.8568,-1.8619,-1.8632,-1.8676,-1.8677,-1.8753,-1.8708,-1.8813,-1.8763,-1.8798,-1.8817,-1.8822,-1.8831,-1.8781,-1.8866,-1.9009,-1.9026,-1.8838,-1.8836,-1.8835,0,-1.822,-1.8324,-1.8409,-1.8437,-1.85,-1.8541,-1.8569,-1.8617,-1.8656,-1.8711,-1.8737,-1.88,-1.8835,-1.8884,-1.8904,-1.8869,-1.9008,-1.8965,-1.9022,-1.9021,-1.9052,-1.905,-1.9204,-1.9073,-1.9072,-1.9072,-1.9072,0,-1.8341,-1.8415,-1.8446,-1.8499,-1.8582,-1.8597,-1.8679,-1.8706,-1.8748,-1.8807,-1.8805,-1.886,-1.8881,-1.894,-1.8955,-1.904,-1.9056,-1.9069,-1.9072,-1.907,-1.9068,-1.9094,-1.9087,-1.9076,-1.9075,-1.9075,-1.9074,0,-1.8445,-1.8468,-1.8561,-1.8614,-1.8628,-1.8688,-1.8733,-1.8784,-1.8806,-1.888,-1.8898,-1.8932,-1.9001,-1.9025,-1.9108,-1.9119,-1.9218,-1.9215,-1.9201,-1.9202,-1.9258,-1.9253,-1.9435,-1.946,-1.9311,-1.9312,-1.9313,0,-1.8521,-1.8578,-1.8636,-1.8675,-1.8705,-1.8767,-1.8807,-1.8824,-1.8866,-1.8928,-1.8973,-1.9041,-1.9096,-1.9207,-1.924,-1.9304,-1.9303,-1.9362,-1.9313,-1.9308,-1.9305,-1.9302,-1.9308,-1.9372,-1.9373,-1.9374,-1.9375,0,-1.8654,-1.8663,-1.872,-1.8783,-1.883,-1.888,-1.8929,-1.8961,-1.8984,-1.9032,-1.9102,-1.9145,-1.923,-1.9299,-1.9364,-1.9394,-1.939,-1.9391,-1.9407,-1.9406,-1.9396,-1.9404,-1.9228,-1.9387,-1.9386,-1.9385,-1.9384,-1.9384,-1.8747,-1.8798,-1.8847,-1.8911,-1.8949,-1.8994,-1.9045,-1.9073,-1.9132,-1.9202,-1.9208,-1.9284,-1.9334,-1.9421,-1.9454,-1.9515,-1.9498,-1.9522,-1.9529,-1.9535,-1.9539,-1.9386,-1.9526,-1.9526,-1.9526,-1.9526,-1.9525,0,-1.8881,-1.8912,-1.8971,-1.9039,-1.909,-1.9079,-1.9132,-1.9176,-1.9243,-1.9289,-1.9344,-1.9425,-1.9491,-1.9528,-1.9595,-1.9636,-1.9635,-1.9653,-1.9651,-1.9658,-1.955,-1.9529,-1.9652,-1.9652,-1.9652,-1.9652,-1.9652,-1.9652,-1.8957,-1.9042,-1.9057,-1.9161,-1.9191,-1.9265,-1.9297,-1.9338,-1.9376,-1.9466,-1.9521,-1.9544,-1.9588,-1.9657,-1.9718,-1.9727,-1.9752,-1.9772,-1.978,-1.9678,-1.9665,-1.9653,-1.9634,-1.9777,-1.9777,-1.9883,-1.9884,-1.9885]},{"header":{"parameterUnit":"m.s-1","parameterCategory":1,"la1":30.2991,"la2":30.254,"lo1":-89.0895,"lo2":-89.0444,"dy":0.0017,"dx":0.0017,"nx":28,"ny":28,"refTime":"2024-08-25T09:00:00:Z","depth":0,"parameterNumber":3,"parameterNumberName":"V-component_of_WINDS"},"data":[0,0,0,0,0,0,0,0,0,0,0,0,0,0,0,0,0,0,0,0,0,0,0,0,0,0,0,0,0,0,0,0,0,0,0,0,0,0,0,0,0,0,0,0,0,0,0,0,0,0,0,0,0,0,0,0,0,0,-2.7195,-2.7195,0,-2.7148,-2.7148,-2.7147,-2.7074,-2.7073,-2.7071,-2.707,-2.7023,-2.7023,-2.7023,0,0,0,0,0,0,0,0,0,0,0,0,0,-2.7222,-2.7222,-2.7195,-2.7195,-2.7194,-2.7148,-2.7148,-2.7147,-2.7074,-2.7073,-2.7071,-2.707,-2.7023,-2.7023,-2.7023,0,0,0,0,0,0,0,0,0,0,0,0,0,-2.7196,-2.7222,-2.7195,-2.7152,-2.7148,-2.7149,-2.7148,-2.7147,-2.7075,-2.7073,-2.7071,-2.7069,-2.7023,-2.7023,-2.7023,-2.7062,0,0,-2.7023,-2.7023,0,0,0,0,0,0,0,0,-2.7198,-2.7195,-2.7159,-2.7155,-2.715,-2.7115,-2.714,-2.7119,-2.7075,-2.7103,-2.707,-2.7068,-2.7055,-2.7052,-2.7048,-2.706,-2.7058,-2.7023,-2.7023,-2.7023,-2.7023,0,0,0,0,0,0,0,-2.72,-2.7197,-2.7177,-2.7159,-2.7153,-2.7135,-2.7129,-2.7135,-2.7091,-2.71,-2.7094,-2.709,-2.7052,-2.7048,-2.7046,-2.7057,-2.7023,-2.7023,-2.7023,-2.7023,-2.7097,-2.7099,0,0,0,0,0,0,-2.7208,-2.7199,-2.7178,-2.7175,-2.717,-2.7136,-2.713,-2.7128,-2.709,-2.7082,-2.7092,-2.7087,-2.7049,-2.7046,-2.7044,-2.7087,-2.7023,-2.7022,-2.7022,-2.7095,-2.7098,-2.71,0,0,0,0,0,0,-2.7209,-2.7207,-2.718,-2.7186,-2.7181,-2.7138,-2.7137,-2.7129,-2.7124,-2.7084,-2.7076,-2.7096,-2.7047,-2.7044,-2.7058,-2.7084,-2.7022,-2.7022,-2.7093,-2.7096,-2.7099,-2.7173,0,0,0,0,0,0,-2.721,-2.7207,-2.7222,-2.7187,-2.7181,-2.7195,-2.7139,-2.7129,-2.7124,-2.7117,-2.7085,-2.7078,-2.7046,-2.7058,-2.7058,-2.7083,-2.7022,-2.709,-2.7094,-2.7098,-2.7168,-2.7178,-2.7187,0,0,0,0,0,-2.7211,-2.7245,-2.7223,-2.7221,-2.7198,-2.7196,-2.7193,-2.7155,-2.7127,-2.7141,-2.7115,-2.7079,-2.7081,-2.706,-2.7059,-2.7085,-2.7089,-2.7093,-2.7098,-2.7164,-2.7176,-2.7186,0,0,0,0,0,0,-2.7285,-2.724,-2.7215,-2.7238,-2.7222,-2.7184,-2.7201,-2.7169,-2.7161,-2.7155,-2.7107,-2.7101,-2.712,-2.7104,-2.7081,-2.712,-2.7079,-2.7084,-2.713,-2.7141,-2.7151,-2.7154,-2.7022,0,0,0,0,0,-2.7304,-2.7307,-2.7267,-2.7291,-2.7284,-2.7244,-2.7242,-2.7214,-2.7195,-2.7188,-2.7162,-2.7146,-2.7142,-2.7141,-2.7136,-2.7165,-2.7156,-2.7182,-2.7191,-2.7199,-2.7204,-2.7217,-2.7227,-2.7115,-2.7115,-2.7115,0,0,-2.7344,-2.7319,-2.7324,-2.7306,-2.7289,-2.7293,-2.7239,-2.7245,-2.7247,-2.7188,-2.7199,-2.718,-2.7158,-2.718,-2.7188,-2.7166,-2.7233,-2.7205,-2.7212,-2.7212,-2.7222,-2.7233,-2.7243,-2.7118,-2.7117,-2.7117,0,0,-2.7417,-2.7399,-2.7417,-2.7402,-2.7378,-2.7351,-2.7355,-2.7322,-2.7307,-2.7317,-2.7273,-2.7275,-2.727,-2.7256,-2.7248,-2.7315,-2.7282,-2.7315,-2.7364,-2.7377,-2.7386,-2.7394,-2.7417,-2.7425,-2.7319,-2.732,-2.732,0,-2.747,-2.7473,-2.7431,-2.7439,-2.7432,-2.7379,-2.7397,-2.7384,-2.736,-2.7356,-2.7333,-2.7325,-2.7306,-2.7323,-2.7339,-2.7335,-2.7338,-2.7318,-2.7388,-2.7395,-2.7402,-2.7423,-2.7432,-2.7324,-2.7323,-2.7323,-2.7322,0,-2.7537,-2.754,-2.7558,-2.7535,-2.753,-2.7543,-2.7503,-2.7503,-2.7475,-2.7451,-2.7461,-2.7437,-2.7425,-2.7427,-2.74,-2.744,-2.7427,-2.7397,-2.7355,-2.7417,-2.7436,-2.7444,-2.733,-2.7328,-2.7327,-2.7326,0,0,-2.7656,-2.761,-2.7617,-2.7606,-2.7575,-2.7576,-2.7587,-2.7575,-2.7575,-2.756,-2.7567,-2.7564,-2.7535,-2.7527,-2.7497,-2.7509,-2.7563,-2.7477,-2.7476,-2.7493,-2.7603,-2.7626,-2.7636,-2.754,-2.7542,-2.7543,-2.7605,0,-2.7723,-2.7738,-2.7701,-2.7725,-2.7726,-2.7676,-2.7685,-2.7667,-2.7644,-2.7642,-2.7616,-2.7615,-2.7577,-2.7571,-2.7581,-2.7554,-2.7584,-2.7549,-2.7546,-2.7546,-2.7552,-2.7646,-2.767,-2.773,-2.7612,-2.7613,-2.7614,0,-2.7803,-2.7791,-2.7816,-2.7783,-2.7782,-2.7791,-2.7776,-2.7775,-2.7753,-2.7736,-2.7725,-2.7691,-2.7699,-2.7659,-2.7668,-2.7645,-2.7641,-2.7628,-2.7629,-2.7627,-2.7584,-2.7646,-2.7748,-2.7757,-2.7626,-2.7625,-2.7624,0,-2.7886,-2.7877,-2.789,-2.7882,-2.7844,-2.7851,-2.7835,-2.7812,-2.7807,-2.7794,-2.779,-2.7779,-2.7773,-2.7764,-2.7728,-2.7703,-2.7741,-2.7698,-2.7726,-2.7727,-2.7736,-2.7736,-2.7838,-2.7735,-2.7735,-2.7735,-2.7734,0,-2.7964,-2.7981,-2.7927,-2.7935,-2.7952,-2.7908,-2.7926,-2.7905,-2.7885,-2.7887,-2.7843,-2.7847,-2.7798,-2.7796,-2.7768,-2.7779,-2.7777,-2.7762,-2.7754,-2.7766,-2.7767,-2.7762,-2.7757,-2.7737,-2.7736,-2.7736,-2.7735,0,-2.806,-2.8024,-2.8035,-2.7998,-2.7989,-2.8003,-2.7971,-2.7977,-2.7951,-2.7955,-2.7953,-2.7913,-2.7908,-2.787,-2.7858,-2.7838,-2.786,-2.7844,-2.7867,-2.7862,-2.7891,-2.7888,-2.7993,-2.8004,-2.7895,-2.7896,-2.7897,0,-2.8112,-2.8123,-2.8087,-2.8086,-2.8072,-2.8071,-2.8065,-2.8023,-2.8019,-2.7994,-2.8003,-2.7994,-2.7985,-2.798,-2.7949,-2.7938,-2.7921,-2.7959,-2.792,-2.793,-2.7921,-2.792,-2.7921,-2.7967,-2.7969,-2.797,-2.7971,0,-2.8207,-2.8189,-2.8182,-2.817,-2.8165,-2.8153,-2.8138,-2.814,-2.8092,-2.809,-2.8084,-2.8077,-2.8064,-2.8055,-2.8039,-2.8023,-2.7989,-2.7983,-2.7989,-2.8001,-2.8013,-2.8006,-2.7889,-2.7981,-2.798,-2.7979,-2.7979,-2.7978,-2.8282,-2.8289,-2.8265,-2.8259,-2.8244,-2.8231,-2.8234,-2.8208,-2.8203,-2.8188,-2.8163,-2.8161,-2.8138,-2.8113,-2.8099,-2.8096,-2.8076,-2.8085,-2.8087,-2.8089,-2.8095,-2.8014,-2.8093,-2.8093,-2.8092,-2.8092,-2.8092,0,-2.8374,-2.8356,-2.8351,-2.8332,-2.8327,-2.8295,-2.8277,-2.8275,-2.8274,-2.8255,-2.8247,-2.824,-2.8232,-2.82,-2.8188,-2.8192,-2.8176,-2.819,-2.8189,-2.8185,-2.8114,-2.811,-2.8203,-2.8203,-2.8203,-2.8203,-2.8203,-2.8203,-2.8422,-2.8432,-2.8411,-2.8413,-2.8395,-2.8392,-2.8384,-2.8372,-2.8357,-2.8351,-2.8344,-2.8323,-2.8299,-2.8284,-2.8275,-2.8265,-2.8263,-2.8282,-2.8268,-2.8201,-2.8191,-2.818,-2.8176,-2.8282,-2.8282,-2.8339,-2.834,-2.834]}]]